ECMWFFLT2_sfc_dewp_015.txt.gz
Dewpoint
69 69 70 70 70 70 71 71 72 72 72 72 72 72 72 72 72 72 72 72 71 71 70 70 71 71 71 70 70 71 71 71 70 70 70 70 70 70 69 69 69 69 69 69 68 68 68 68 68 67 68 68 67 64 62 61 61 62 61 62 63 63
68 69 69 69 69 70 70 71 70 70 70 71 72 72 71 71 71 70 72 71 70 70 70 70 70 71 70 70 71 71 71 71 70 70 70 70 70 70 69 69 69 69 69 69 69 66 67 68 68 67 68 68 66 63 62 62 61 61 62 62 63 65
68 69 68 69 69 70 69 69 70 70 70 71 71 71 71 71 70 70 70 71 70 69 69 70 70 70 70 71 70 71 71 71 71 70 70 70 70 70 69 69 70 69 69 69 67 64 64 65 65 68 68 66 65 64 63 62 60 60 61 62 62 66
68 68 68 68 69 69 69 69 69 69 69 69 68 70 70 69 68 67 69 70 69 68 68 68 70 68 70 69 70 70 71 71 71 70 70 69 69 69 69 69 69 69 69 68 65 64 64 64 64 65 65 64 64 64 62 62 59 59 61 64 63 67
68 68 68 69 68 68 69 69 68 68 68 67 67 68 68 67 67 65 66 67 68 67 68 68 68 67 68 68 68 68 68 69 69 69 70 67 67 67 67 66 66 66 63 63 63 63 61 63 63 65 64 64 64 63 62 61 59 59 61 63 64 67
60 67 68 67 67 69 68 67 67 68 68 68 68 69 69 68 68 68 68 68 68 67 67 67 67 66 67 66 67 67 67 67 68 68 68 67 67 66 64 63 62 62 62 62 61 61 60 62 62 64 63 63 63 62 61 61 59 60 61 63 65 67
52 58 67 68 68 68 67 67 68 67 67 67 68 68 68 67 68 68 67 67 67 66 67 67 66 67 66 66 66 67 67 66 67 67 67 66 66 66 65 63 61 61 61 61 60 60 60 62 62 62 61 61 62 61 61 60 60 61 62 63 65 67
55 54 58 68 67 67 67 67 68 68 68 69 69 67 67 67 68 67 66 67 68 66 67 67 66 66 67 66 67 67 66 67 67 67 66 64 64 65 64 63 61 60 59 59 59 59 59 60 62 61 61 60 61 61 61 59 60 61 62 63 64 66
54 55 58 65 66 67 67 67 67 67 67 67 67 67 67 67 66 67 66 67 67 66 67 67 66 65 66 66 67 66 66 67 67 67 66 64 63 64 63 62 61 60 59 58 58 59 57 60 62 61 61 61 61 60 60 59 60 60 62 63 64 65
55 56 55 57 62 65 66 66 66 66 67 68 66 67 67 67 67 66 67 68 67 67 67 67 66 66 66 66 66 66 66 67 67 67 66 64 65 63 61 61 61 60 59 59 58 59 58 57 58 59 58 60 60 59 58 58 60 60 61 62 63 65
53 59 54 54 56 57 61 64 66 67 67 66 66 67 67 67 67 67 66 67 67 67 67 67 67 66 66 66 66 66 66 67 67 66 66 65 68 67 62 61 62 60 60 59 58 58 56 55 54 56 56 55 56 58 58 57 60 60 60 61 63 64
55 56 53 49 52 51 54 57 62 63 63 66 67 66 66 66 68 67 67 67 67 67 66 66 66 66 66 66 66 66 67 66 67 67 67 66 67 67 66 64 63 62 62 61 61 59 56 55 55 54 54 55 56 56 58 58 58 60 60 61 62 63
52 53 52 54 51 51 53 50 51 52 54 59 65 65 65 66 66 66 67 67 67 66 66 66 66 66 66 66 66 66 66 67 67 67 67 67 67 66 66 65 64 63 61 61 61 61 58 57 56 55 55 55 55 54 55 56 58 60 61 61 62 62
53 54 56 54 51 48 51 51 52 50 55 51 58 61 64 63 65 66 67 67 67 66 66 66 66 66 67 67 66 66 66 66 67 67 67 67 66 66 65 65 64 63 63 61 60 61 59 57 57 57 56 56 55 55 56 55 58 58 62 61 60 61
55 52 53 53 54 54 50 49 51 51 51 56 59 56 58 62 59 60 66 66 66 66 66 66 67 67 67 66 65 66 66 66 67 67 67 67 66 66 66 64 64 63 62 61 60 61 60 56 56 55 55 56 54 55 56 55 57 58 61 62 60 61
54 54 54 55 54 51 52 53 55 61 53 55 53 55 54 51 52 58 61 65 66 66 66 65 65 66 65 66 66 66 67 67 67 67 67 67 67 66 66 66 65 64 62 61 60 58 59 57 56 56 55 56 56 55 56 57 57 57 59 62 61 61
53 54 54 54 53 54 54 52 53 53 53 53 50 49 49 55 59 56 57 59 61 62 62 65 66 66 65 65 66 66 67 67 67 67 67 66 66 66 66 65 65 65 64 62 60 58 56 57 57 57 56 56 56 56 54 56 58 58 56 60 61 62
55 56 56 55 53 54 55 55 55 54 58 51 52 51 53 54 51 56 57 58 58 60 62 61 64 66 66 65 66 66 66 65 66 66 65 65 66 66 66 65 64 65 64 63 62 61 59 58 58 56 56 54 55 55 54 55 58 60 56 57 58 62
56 55 56 56 57 56 56 55 54 54 55 55 54 55 54 51 55 55 55 58 58 58 61 59 60 64 65 66 66 66 65 65 65 65 65 66 65 66 66 66 64 65 66 64 63 63 63 61 60 62 57 55 55 55 55 55 58 59 57 56 57 58
54 56 56 56 56 56 55 50 45 49 48 51 53 55 54 53 54 54 57 57 58 60 58 59 58 60 61 62 63 65 66 66 65 65 64 64 64 65 65 65 65 65 65 65 64 63 63 63 61 61 60 60 56 55 54 55 55 57 58 57 56 57
55 56 55 55 55 54 53 43 47 53 45 46 51 56 55 54 55 56 56 56 56 59 57 58 59 59 58 60 60 60 62 65 65 65 64 63 64 64 64 64 63 63 65 65 65 65 63 63 60 59 59 59 58 55 54 55 54 54 56 57 57 56
55 55 56 55 52 51 51 49 46 47 47 46 49 53 52 52 53 57 56 57 58 59 56 56 59 59 60 58 57 58 59 60 64 63 64 63 63 64 64 64 64 63 64 64 63 65 65 63 60 58 57 57 57 56 57 55 53 53 53 54 56 57
54 54 55 53 48 49 53 53 51 50 50 49 52 54 52 53 57 54 54 56 57 55 54 53 54 57 58 59 58 58 58 59 60 62 63 63 64 64 64 63 63 63 63 63 63 64 65 63 61 61 60 57 55 53 53 55 56 55 54 53 54 54
53 54 54 54 51 53 54 54 54 53 54 53 51 57 54 55 53 52 50 52 56 54 52 53 55 55 54 56 57 58 59 59 58 60 61 61 60 59 59 62 63 63 63 62 62 61 63 64 61 60 57 57 56 53 51 52 53 55 56 54 53 53
53 54 52 57 53 54 55 54 52 53 55 53 53 51 49 45 52 54 53 53 51 52 52 53 52 52 55 54 55 56 57 57 56 57 59 59 60 61 60 60 63 63 63 62 61 61 63 64 62 62 59 57 54 54 52 53 54 53 56 54 53 53
54 54 52 53 53 53 55 53 53 52 52 51 49 46 46 47 48 48 49 52 54 54 53 52 52 53 54 55 54 55 55 55 55 56 57 57 58 57 59 60 59 63 63 63 62 61 61 62 64 63 62 62 57 54 54 56 54 51 56 56 54 53
54 53 53 53 54 55 55 55 55 54 54 53 49 48 49 51 51 50 52 50 52 55 52 51 54 53 53 54 55 55 54 56 56 55 57 56 55 56 57 57 60 60 60 62 62 61 61 61 62 63 62 62 62 61 61 59 56 55 53 56 56 54
54 54 52 52 53 54 55 56 56 55 54 53 48 49 51 51 52 55 52 51 53 53 55 54 54 53 51 51 54 53 52 52 54 53 56 55 54 54 56 57 59 59 60 60 61 62 61 61 61 60 62 62 62 61 62 61 60 58 55 53 53 55
54 54 50 52 53 54 56 54 50 50 50 52 50 50 52 52 49 53 51 53 52 49 53 49 50 52 53 52 53 52 54 54 54 54 56 54 53 54 54 54 54 54 54 57 60 61 61 61 61 61 60 60 61 60 61 60 59 60 58 56 54 54
54 54 50 52 52 52 55 54 49 49 50 49 51 51 50 50 51 49 50 51 51 51 52 51 52 50 50 51 52 53 52 52 53 53 55 53 53 53 53 53 54 55 55 55 57 59 60 61 61 61 61 60 59 59 59 60 59 59 59 58 56 54
55 55 51 52 51 51 53 52 49 50 50 47 50 50 50 48 50 48 50 49 51 51 54 54 55 53 51 50 50 54 52 52 53 54 54 52 52 53 53 53 53 53 53 53 54 56 58 60 61 61 61 61 60 59 58 58 58 59 59 57 57 56
55 55 53 52 51 51 52 52 51 50 51 48 49 48 49 45 50 48 50 50 49 51 49 51 51 50 52 53 53 51 53 53 52 51 52 53 53 52 52 52 53 54 54 55 55 56 56 57 59 61 61 62 61 61 60 59 58 58 58 58 58 56
55 55 53 52 50 50 51 51 50 51 50 51 49 48 49 47 51 48 49 48 50 48 49 50 50 49 51 51 52 50 50 51 51 52 53 53 53 53 53 53 52 52 52 53 54 54 54 55 58 60 60 61 61 61 61 60 60 59 58 58 57 55
55 55 54 52 50 50 51 50 51 51 50 53 49 50 49 50 50 50 50 49 49 49 49 49 49 48 50 50 51 52 52 51 51 51 51 51 51 52 52 52 52 51 51 52 53 53 54 54 56 57 60 61 61 62 62 62 61 60 58 58 57 56
55 55 54 52 52 50 51 50 51 52 51 52 51 51 51 51 51 50 50 50 50 49 48 49 48 49 52 50 51 51 51 50 50 50 50 50 51 50 50 51 51 52 52 52 52 53 53 53 53 53 55 59 61 61 61 61 62 62 61 60 59 58
56 55 54 53 52 52 51 50 52 52 52 53 53 52 51 51 52 50 50 49 50 49 49 50 49 49 50 49 50 50 51 50 51 50 50 51 50 50 51 50 51 52 51 53 53 53 53 52 52 53 54 55 59 61 61 62 62 62 62 61 61 60
56 55 54 53 52 53 52 51 52 52 52 52 51 51 50 49 50 51 50 49 49 50 50 49 50 51 50 50 50 49 49 49 50 50 50 50 50 50 50 50 49 49 49 50 51 51 52 51 51 52 54 55 57 59 60 61 61 61 61 61 61 61

ECMWFFLT2_sfc_dewp_021.txt.gz
Dewpoint
68 68 69 70 71 71 72 72 72 72 72 72 71 71 71 71 72 71 70 71 70 69 69 69 69 70 70 70 70 71 71 70 69 69 69 70 70 70 70 69 69 69 69 69 69 68 68 68 68 67 67 66 65 61 61 60 60 62 61 63 64 62
68 68 68 70 70 70 70 71 70 70 71 71 71 71 71 70 72 68 70 70 69 70 69 67 69 70 70 70 71 71 71 70 69 69 70 70 70 70 70 69 69 69 69 69 69 63 63 66 67 67 66 66 62 60 61 61 61 61 62 62 64 63
68 68 68 69 70 70 70 70 70 70 71 71 71 70 69 71 69 69 69 69 69 69 68 68 68 70 69 71 70 71 71 69 69 69 70 70 70 70 69 69 69 69 69 69 65 61 59 59 62 66 65 62 60 61 60 61 60 61 62 62 62 65
69 68 68 68 69 69 69 70 70 70 70 69 69 70 68 69 68 69 68 68 68 68 68 68 71 69 69 70 70 71 70 68 68 70 70 69 70 70 70 69 69 69 69 67 62 62 61 60 60 61 61 61 61 61 60 60 61 61 61 63 62 65
68 67 67 68 69 68 68 69 69 70 69 67 68 68 68 67 68 68 68 68 68 68 67 67 67 68 67 68 67 68 68 68 68 67 69 66 67 68 68 67 67 67 64 63 62 61 61 60 59 61 61 61 61 61 60 61 61 61 61 63 62 66
67 66 67 69 68 68 69 68 68 68 67 66 67 67 67 66 66 67 67 68 67 65 66 67 65 65 67 67 67 67 67 67 67 67 68 66 66 66 65 67 67 66 63 62 62 62 61 62 59 59 60 61 61 60 59 60 61 61 62 62 63 66
65 65 66 68 68 68 68 67 68 67 66 65 66 66 65 64 64 65 67 68 66 64 65 65 65 65 66 66 67 67 67 67 67 67 66 66 65 65 65 65 65 64 61 61 63 62 61 61 59 60 60 61 61 61 60 60 60 61 62 62 64 67
64 65 65 67 67 67 67 67 66 67 66 68 67 65 65 64 65 65 66 67 68 65 65 64 64 65 65 65 66 66 66 67 67 67 66 65 65 64 63 63 62 61 61 61 62 62 61 61 59 59 60 60 60 59 59 59 60 60 61 62 63 67
64 65 65 66 66 66 67 67 67 67 66 68 65 65 65 65 64 65 65 66 68 65 64 64 64 65 65 66 65 65 65 66 67 67 66 65 65 64 63 62 61 60 59 60 59 60 60 59 58 58 59 60 60 59 59 59 59 60 61 62 63 65
63 65 65 65 65 65 66 66 66 66 66 68 64 65 65 64 64 64 65 65 66 65 65 65 64 64 64 65 65 65 64 65 64 64 66 65 64 64 63 61 61 61 60 59 59 59 59 59 58 58 59 60 60 60 61 59 59 60 61 62 63 64
62 64 63 63 63 64 65 65 66 66 66 65 66 66 65 64 64 64 64 65 65 65 65 64 64 64 64 64 65 65 65 65 64 64 65 64 65 63 63 63 62 61 61 60 59 59 59 59 58 58 58 59 60 60 60 60 59 60 61 62 62 63
55 58 60 62 64 63 63 64 65 64 64 64 66 64 65 65 66 64 65 64 64 65 65 64 64 64 64 64 64 65 65 64 65 65 65 65 65 65 64 63 62 62 61 61 60 60 59 59 59 58 58 58 59 60 60 60 59 60 60 61 62 63
51 52 54 57 60 59 60 62 62 62 64 65 65 64 64 65 65 64 64 64 64 65 65 64 63 63 65 64 65 65 64 65 65 65 64 64 65 65 65 63 63 63 61 61 60 60 60 59 59 58 58 58 59 59 59 59 59 59 60 61 62 62
51 50 52 54 55 55 54 53 55 54 62 63 63 63 65 65 65 64 64 65 64 64 64 63 64 64 64 63 64 65 65 65 64 65 64 64 64 64 64 64 63 62 64 61 60 61 61 60 59 58 57 57 59 59 58 59 59 59 59 60 61 62
54 52 52 52 51 51 51 52 51 53 57 60 59 61 60 61 63 64 65 65 65 64 64 64 65 65 65 64 64 65 65 65 66 65 64 64 64 64 64 64 64 63 62 61 61 61 61 61 60 59 57 56 56 57 57 58 59 59 59 59 61 61
50 49 50 51 51 52 52 52 53 55 52 53 53 52 54 56 63 63 65 66 65 64 64 63 64 65 64 64 64 64 65 65 65 66 66 65 64 64 64 64 64 64 63 62 61 61 60 59 59 58 57 56 56 56 56 57 59 58 59 59 60 61
48 49 51 51 51 50 50 50 50 51 51 52 53 54 56 59 63 62 63 63 62 64 64 63 63 64 65 64 64 64 65 64 64 64 65 66 65 64 63 64 63 64 63 62 62 61 61 60 61 59 57 56 56 56 55 56 58 59 59 59 59 60
50 50 50 50 50 51 52 52 52 54 57 53 53 54 55 57 57 57 57 58 59 59 60 60 63 64 64 63 64 64 64 64 64 65 65 65 65 64 64 63 63 63 64 63 63 62 61 62 62 61 59 58 57 56 56 55 57 60 59 59 59 60
50 50 51 53 54 53 52 51 51 51 52 53 53 53 54 55 55 57 57 57 57 58 58 57 59 62 63 64 64 64 63 64 64 64 64 65 64 65 64 63 63 63 64 64 63 63 62 62 62 62 61 60 58 57 57 56 56 58 60 60 59 60
49 50 52 53 53 51 49 50 49 49 50 52 52 54 53 53 54 56 57 56 56 55 57 57 56 57 58 60 61 63 64 63 63 63 63 63 63 63 63 63 63 63 63 63 64 64 63 63 62 61 60 60 60 60 58 56 55 57 59 60 60 60
50 51 53 52 51 50 46 46 46 46 48 49 52 51 52 52 53 54 55 55 55 54 54 56 56 56 56 58 57 58 60 64 64 63 63 62 63 63 63 63 63 63 63 62 62 63 64 64 62 60 58 58 58 59 59 59 55 55 57 59 60 60
50 52 51 52 53 51 47 46 46 46 47 50 50 49 49 50 52 54 54 54 54 53 53 54 55 55 55 55 55 56 59 62 64 63 63 62 63 63 63 62 63 62 63 62 61 63 63 63 61 59 57 57 57 58 58 57 56 55 54 57 59 60
51 52 51 52 51 50 50 49 47 46 50 49 50 52 49 53 55 52 52 53 53 52 52 53 54 55 54 54 54 55 56 59 62 63 62 61 61 61 61 62 62 62 61 62 62 63 63 63 60 60 59 58 54 54 55 55 56 56 54 54 57 59
51 52 51 52 53 50 50 48 48 49 50 49 49 54 49 50 50 51 51 51 51 51 52 52 53 54 53 53 53 53 54 55 57 60 60 60 60 61 61 62 62 62 62 60 61 61 63 63 62 60 56 57 55 53 52 54 54 55 56 54 55 56
52 52 52 54 51 51 52 51 51 51 51 50 50 48 47 46 48 53 50 49 49 51 51 51 52 53 54 52 52 53 54 54 54 55 55 55 55 56 57 59 60 61 61 60 60 61 61 63 63 63 61 57 55 54 53 54 55 54 55 54 54 54
52 51 52 51 51 51 50 49 49 48 46 47 47 47 46 45 47 48 48 48 51 51 51 50 51 52 54 53 52 52 52 53 53 54 54 53 53 53 54 55 55 57 58 60 61 60 60 61 62 62 62 61 59 57 56 58 56 53 56 56 56 55
52 52 51 51 51 51 49 48 48 47 47 48 48 47 46 45 47 47 49 48 49 50 51 50 51 50 52 52 50 51 52 53 53 54 54 52 52 52 53 54 54 53 54 56 58 58 58 59 60 60 61 62 61 61 61 58 56 56 55 55 57 56
52 53 51 51 51 50 48 48 48 47 50 49 49 49 46 46 47 51 47 48 50 49 50 50 49 51 50 53 51 51 51 51 52 54 53 51 51 51 52 52 53 53 54 54 54 55 55 57 57 58 60 60 60 61 62 61 61 58 57 55 57 59
52 52 51 51 51 49 49 48 48 49 49 49 48 47 48 52 49 52 46 48 47 47 48 49 50 51 50 52 54 50 49 49 50 52 53 51 51 51 51 51 51 51 51 52 53 53 52 53 54 55 57 58 59 60 61 61 61 61 58 56 56 56
52 52 51 50 51 49 49 50 48 49 49 50 49 48 48 48 48 47 46 47 47 46 47 48 48 49 48 50 51 50 49 48 49 53 53 50 50 50 50 50 50 50 50 50 51 52 52 52 53 54 56 57 57 58 58 60 60 60 59 59 56 56
52 51 52 50 50 49 50 50 48 50 49 50 48 48 47 45 46 46 46 46 46 46 48 49 49 50 49 48 51 53 50 51 51 53 51 50 49 49 50 49 49 49 49 49 50 50 50 51 51 52 53 54 55 56 56 55 57 58 58 57 57 57
51 51 51 50 50 49 50 51 50 50 50 50 49 48 47 45 47 47 46 46 46 47 46 47 48 48 47 49 51 49 50 49 51 49 49 48 49 49 49 49 49 49 48 49 49 51 49 50 50 51 51 52 53 54 55 56 58 58 58 58 58 57
51 51 50 50 49 48 50 51 51 50 50 51 50 47 46 45 47 47 47 46 45 45 46 46 46 46 46 48 51 48 47 48 48 50 49 48 48 48 48 48 49 48 48 48 49 49 48 48 49 50 50 52 53 53 53 55 56 58 58 58 58 56
51 51 50 50 49 48 48 50 51 50 50 51 50 48 47 45 47 47 47 47 47 46 46 46 45 46 47 48 49 50 50 48 48 49 49 48 48 49 48 49 48 48 48 48 49 48 48 49 49 49 50 50 50 51 52 53 54 56 56 56 56 56
52 52 50 50 50 48 48 49 51 50 50 49 49 49 48 47 47 47 47 48 47 46 46 47 46 47 49 47 48 48 48 47 47 47 48 47 48 47 47 47 48 48 48 48 48 48 46 47 48 48 48 49 50 51 51 52 53 54 56 57 57 57
53 53 51 50 50 49 48 49 51 49 49 49 50 49 48 48 48 48 47 48 48 47 47 46 46 48 48 47 47 48 48 47 47 47 48 48 47 47 47 47 47 46 47 49 47 47 47 46 47 47 48 49 49 49 50 52 53 54 55 56 57 57
54 53 52 50 50 49 48 49 51 50 49 49 48 48 48 48 47 48 48 47 47 48 47 46 47 47 47 46 46 46 46 46 47 47 46 47 47 47 47 46 46 46 46 46 47 46 47 47 48 48 48 47 48 48 49 50 51 53 54 55 56 56

ECMWFFLT2_sfc_dewp_024.txt.gz
Dewpoint
70 70 71 72 72 71 71 71 71 71 71 71 71 71 71 71 71 71 70 70 69 69 68 68 68 69 69 71 70 70 71 70 70 69 70 70 70 70 70 69 70 69 69 69 69 68 68 67 67 67 66 65 65 63 62 61 61 63 62 64 65 62
69 70 71 71 72 71 70 71 70 70 71 71 71 71 70 70 70 69 70 69 68 69 68 67 69 69 69 71 70 70 71 71 70 69 69 70 70 70 70 69 70 69 69 69 68 65 66 67 66 67 65 65 62 61 61 61 62 62 63 64 64 64
69 70 70 71 71 71 71 70 70 70 71 71 71 70 69 70 68 68 68 68 69 68 68 68 68 69 70 71 70 70 71 70 69 68 68 70 70 70 70 70 70 69 69 68 64 62 61 62 63 66 65 62 61 61 61 62 62 62 62 63 62 64
69 69 69 70 71 70 70 71 71 70 69 69 69 70 69 69 68 68 68 67 68 69 68 68 71 69 71 70 70 71 71 69 68 67 67 68 70 70 70 69 69 69 68 66 63 63 62 61 61 60 61 62 62 61 61 61 61 62 62 64 62 65
68 68 68 69 70 69 70 70 70 70 70 68 68 69 69 68 68 68 68 68 68 69 69 68 68 68 68 67 68 69 68 68 68 67 67 68 68 68 69 67 67 68 66 65 64 62 62 61 61 61 61 61 63 62 62 62 62 62 62 64 63 65
68 67 67 69 69 70 70 69 69 69 69 68 69 69 69 68 68 68 69 68 68 68 67 68 66 66 67 67 68 68 67 67 67 67 68 67 67 67 67 67 68 67 66 65 65 64 64 62 61 61 61 62 62 62 61 61 62 62 62 63 64 65
67 67 67 68 69 69 68 68 68 69 68 66 68 68 68 67 67 67 69 69 68 66 67 67 66 65 66 66 68 68 67 67 67 67 67 67 67 67 67 67 67 66 65 65 64 64 62 61 60 61 61 62 62 62 61 61 61 62 62 63 64 65
66 67 67 68 68 68 67 67 67 69 66 68 67 66 66 65 65 65 67 69 69 65 66 66 66 65 66 65 67 68 67 67 67 68 67 67 67 67 66 66 66 65 65 64 63 62 62 61 60 60 61 61 61 61 61 60 61 61 62 63 63 65
66 66 67 68 68 67 67 67 67 66 65 68 65 65 65 64 63 65 65 67 68 65 64 65 65 65 65 67 67 66 65 66 66 68 67 66 66 66 66 65 65 64 62 61 61 61 61 60 59 59 60 61 61 61 61 60 61 61 61 62 63 64
66 66 67 67 67 67 67 67 67 66 65 68 64 64 65 64 63 63 65 65 66 66 65 65 65 64 65 66 66 64 63 64 65 66 66 66 65 65 65 64 62 61 61 60 61 60 61 60 59 59 59 60 61 61 61 61 60 60 61 62 63 64
66 67 66 66 66 66 67 67 66 66 66 66 67 66 65 64 64 63 64 64 65 65 65 65 64 64 64 64 64 64 63 64 64 64 65 65 65 64 64 63 62 62 61 60 60 60 60 60 59 58 59 59 60 61 61 61 60 60 61 62 62 63
64 64 65 65 66 65 65 66 66 66 66 65 65 64 64 63 65 64 64 64 64 65 66 65 63 62 63 63 64 65 64 63 63 64 65 65 65 64 64 63 63 62 62 61 61 61 61 60 60 59 58 58 59 60 61 61 60 60 60 62 62 63
58 60 62 63 64 63 64 65 65 64 64 65 65 64 63 62 63 64 64 64 64 65 65 64 63 64 64 64 64 64 64 64 64 64 64 64 65 65 64 64 63 63 62 61 61 61 61 61 60 60 59 59 59 60 60 60 61 60 60 61 62 62
54 57 58 59 61 61 61 61 62 61 65 65 65 63 64 64 64 65 65 64 65 64 65 64 64 64 64 64 64 65 65 65 64 64 64 64 64 64 64 64 63 63 64 61 61 61 61 61 61 61 60 59 59 60 60 60 60 60 61 61 61 62
55 56 58 58 57 54 52 53 52 55 62 64 64 64 64 65 65 64 64 65 65 65 64 64 64 64 64 64 64 64 64 65 65 64 64 64 64 63 63 63 64 63 63 62 62 62 62 61 61 60 61 60 58 58 59 60 60 60 60 61 61 61
53 53 53 54 51 52 52 52 55 59 56 57 56 56 55 62 65 65 65 65 65 65 65 64 65 65 64 64 64 64 64 65 65 65 65 65 64 63 63 63 63 64 63 63 62 62 61 61 61 61 61 60 59 59 58 58 59 59 59 60 60 61
50 51 51 51 50 50 50 50 51 52 53 54 54 55 57 61 65 64 64 63 63 64 63 64 65 65 64 64 64 64 65 64 64 64 65 65 64 64 63 63 63 64 63 62 62 62 62 62 62 62 62 62 59 58 57 58 59 60 59 60 60 60
50 50 50 50 50 51 52 53 53 55 57 54 54 55 58 61 61 60 58 58 59 61 62 62 64 65 65 65 65 64 64 63 64 64 64 64 64 64 63 63 62 63 64 62 62 62 62 62 61 61 62 62 61 58 57 57 58 61 59 59 60 60
49 49 50 52 52 51 51 52 52 53 53 53 53 54 55 56 56 57 57 57 58 58 59 57 59 61 62 64 64 64 63 63 64 64 63 63 63 63 63 63 62 62 64 64 63 63 63 63 62 61 60 61 61 61 59 57 58 59 60 59 59 59
49 50 51 52 51 50 50 51 51 51 52 52 52 55 53 54 56 57 57 56 55 56 57 58 56 57 59 61 62 63 64 64 63 63 62 62 62 63 63 62 62 62 62 63 64 63 63 63 62 62 61 61 60 60 59 57 57 57 59 60 60 61
49 51 51 50 49 48 47 47 47 49 49 50 51 52 52 52 54 55 54 54 54 54 55 56 57 56 55 58 58 60 63 64 64 63 62 62 63 62 62 62 62 63 62 62 62 63 64 63 62 61 59 59 60 60 60 58 56 56 58 60 60 60
50 51 50 50 51 48 46 48 48 48 49 50 49 49 50 52 53 55 54 53 54 53 54 55 56 56 55 55 58 60 62 63 63 63 62 62 63 63 61 62 62 62 62 62 61 63 63 62 59 59 58 56 58 59 59 59 58 56 56 58 60 61
50 51 51 51 50 48 48 48 47 47 51 49 49 51 50 54 54 52 52 52 53 52 53 54 55 56 54 54 55 58 59 61 61 62 61 61 61 61 61 61 61 61 61 62 62 63 63 62 59 59 59 58 55 55 57 58 58 57 56 56 58 60
50 50 51 53 53 49 49 48 48 50 49 49 48 54 49 50 50 51 50 50 52 51 52 53 54 54 54 54 54 54 54 56 57 58 57 56 56 57 59 61 61 61 61 59 61 61 62 63 62 60 56 57 56 54 54 56 56 58 57 56 56 57
50 51 51 54 51 51 51 51 51 50 50 49 49 48 48 48 50 55 50 49 50 52 52 52 53 54 55 53 53 54 54 54 54 54 54 54 54 54 54 56 58 59 59 59 58 60 61 63 62 63 60 57 56 54 54 56 57 57 58 58 56 55
50 50 51 51 50 50 50 50 49 48 45 45 45 46 46 47 48 48 48 49 50 51 51 51 51 53 55 53 52 53 53 53 53 53 53 53 53 53 53 53 54 55 55 58 59 58 57 59 61 62 62 61 59 57 57 58 57 55 58 57 60 57
50 51 51 51 50 51 48 49 49 47 46 46 46 46 46 46 48 48 49 49 49 50 51 51 51 51 53 53 52 52 53 53 53 53 54 52 52 52 53 53 54 53 54 55 56 55 55 56 59 59 59 61 61 61 61 59 56 57 55 58 59 59
51 52 51 51 50 50 47 48 47 46 48 47 46 47 47 46 47 50 49 49 49 49 50 50 50 51 52 54 51 51 51 52 52 52 53 51 51 51 51 52 53 53 53 54 54 53 53 55 55 55 58 58 60 61 61 61 60 58 57 56 57 61
51 52 51 51 51 49 49 48 47 47 48 48 47 48 49 51 49 52 48 48 47 48 48 49 50 50 51 54 54 50 50 51 51 52 53 51 51 50 50 50 50 50 51 52 54 54 53 53 54 55 55 55 58 58 58 61 61 61 58 56 55 56
51 51 51 50 51 49 48 49 47 47 47 48 49 47 48 48 48 46 47 47 47 47 48 48 49 49 49 50 50 51 51 51 52 53 53 49 49 49 50 50 50 50 50 51 52 53 53 53 53 54 55 55 54 55 55 58 58 56 58 58 55 54
51 51 51 50 50 48 48 48 47 47 47 48 47 47 46 46 47 46 46 46 46 47 48 49 48 50 49 51 53 54 51 51 52 54 51 49 49 49 50 50 50 50 50 50 51 51 51 52 52 52 53 54 54 55 54 54 54 55 55 55 54 54
50 51 51 50 50 48 48 49 47 48 47 48 48 47 46 46 47 46 46 47 46 47 47 47 48 49 48 50 51 51 52 50 50 49 49 50 50 50 50 50 50 50 50 50 51 51 50 50 51 51 52 53 54 54 55 54 55 55 55 54 54 53
49 50 51 50 50 49 48 48 48 48 47 49 48 47 46 46 47 46 46 46 46 46 46 47 47 48 48 49 51 48 49 49 50 51 50 49 49 49 49 50 49 49 49 50 50 49 49 49 50 51 51 52 54 54 54 55 55 55 56 56 55 53
48 50 50 50 49 48 48 48 48 48 48 50 48 47 46 46 46 47 47 47 47 46 47 47 46 48 48 50 50 50 49 49 49 51 50 49 50 50 49 49 48 49 49 50 50 49 49 49 50 50 51 52 51 52 53 54 54 55 55 55 54 53
48 49 50 50 49 48 48 48 49 49 49 50 49 48 46 46 46 47 47 47 47 46 46 46 47 47 50 49 49 49 49 49 49 49 49 49 49 48 49 49 50 49 49 49 48 49 48 48 48 49 49 50 51 52 51 51 53 54 55 55 55 54
48 48 50 50 50 49 47 47 49 49 49 50 51 50 48 48 47 47 47 47 47 47 47 47 46 49 49 49 49 50 50 48 48 49 49 48 48 48 48 49 48 47 48 50 48 48 48 48 48 49 49 49 50 49 50 51 52 53 54 55 55 56
49 49 50 50 50 49 48 47 48 49 49 49 50 49 49 48 47 47 47 47 47 47 47 47 47 49 49 48 49 48 48 48 48 47 47 48 48 48 48 48 47 47 47 47 50 48 48 48 48 49 49 49 49 49 50 50 51 52 53 54 55 55

ECMWFFLT2_sfc_dewp_030.txt.gz
Dewpoint
69 70 71 70 71 70 70 70 70 70 72 72 72 72 71 72 71 71 70 70 70 70 69 70 70 68 68 69 68 69 69 69 70 70 70 70 69 69 69 69 69 69 69 68 68 68 68 66 66 65 66 66 67 63 65 64 63 61 61 61 61 61
69 69 71 71 71 71 71 70 71 71 71 71 71 70 72 71 68 71 70 70 71 69 69 70 70 68 70 69 68 69 69 69 69 69 71 70 70 69 69 69 69 69 69 68 68 62 64 68 67 66 65 65 65 62 64 64 65 60 61 62 61 65
67 69 68 69 70 71 72 71 70 69 69 67 69 69 69 69 68 67 66 66 70 70 67 67 69 69 68 68 69 69 68 68 69 68 70 70 70 69 69 69 69 68 68 69 63 61 61 58 60 63 65 66 60 62 63 64 64 63 61 61 61 67
67 69 69 69 68 69 71 70 69 68 69 68 69 68 68 67 68 67 68 69 69 68 66 68 68 69 69 68 68 68 68 68 67 69 69 70 70 69 69 69 68 68 68 65 61 60 58 56 57 59 60 59 59 62 63 64 61 62 61 60 57 67
67 69 68 70 70 67 68 70 67 67 68 69 67 67 68 67 67 66 67 71 68 68 65 68 70 69 67 67 68 68 69 69 68 68 69 68 66 65 66 62 67 66 62 61 59 60 60 58 60 58 59 59 60 62 61 63 61 62 61 61 64 67
67 67 69 69 68 69 68 68 68 68 68 67 68 67 67 68 68 68 67 68 69 68 67 66 69 69 67 68 67 67 66 67 69 66 67 67 67 64 61 58 61 61 59 60 61 61 61 60 58 57 56 59 60 61 60 61 61 62 62 62 67 67
66 67 68 66 68 68 68 68 67 67 68 67 68 68 68 68 69 68 67 68 69 66 67 66 67 67 67 67 66 67 67 66 66 64 65 67 65 65 61 58 59 60 59 60 60 59 60 60 59 55 57 56 58 59 60 59 61 62 62 62 65 67
66 67 68 65 67 66 68 69 70 69 68 69 68 68 67 68 68 70 68 68 69 66 67 66 68 68 67 67 66 65 67 67 65 64 65 65 64 64 62 60 60 59 58 58 58 60 58 56 58 58 57 56 58 59 60 59 62 63 63 63 63 66
66 67 69 69 68 66 66 68 69 69 67 68 68 68 68 69 69 69 69 67 67 68 67 67 67 67 66 65 69 68 68 68 69 67 67 66 65 64 64 62 61 60 61 59 58 59 57 55 57 59 56 56 56 55 59 60 61 62 61 61 62 65
68 68 69 69 69 69 68 67 68 68 68 69 66 68 69 67 68 68 69 68 67 67 67 67 67 65 64 66 69 68 68 68 68 69 70 67 66 65 64 61 60 60 58 59 57 59 57 55 54 56 55 55 54 55 59 58 59 59 60 62 63 64
65 68 66 62 64 64 66 66 67 68 69 67 67 69 68 69 68 68 68 68 68 67 68 69 68 68 68 68 68 67 67 68 67 68 70 70 69 68 65 64 61 60 60 57 56 56 55 56 55 53 54 52 54 55 57 58 57 57 57 60 61 63
65 68 67 60 63 63 64 62 64 63 64 66 70 69 68 68 69 67 68 67 68 68 68 68 68 67 68 68 67 67 67 68 67 67 67 68 68 69 67 62 61 64 64 61 57 56 56 55 56 53 53 51 52 55 53 56 56 56 57 59 59 61
65 67 65 64 62 63 63 60 61 62 62 65 65 65 65 67 67 68 68 67 66 66 66 67 68 67 67 67 67 67 67 67 67 66 66 68 68 69 68 64 62 62 61 60 59 59 55 56 57 57 57 54 55 52 51 52 56 56 57 58 57 58
65 64 65 64 65 59 62 61 61 62 63 64 63 63 64 66 67 66 66 66 66 66 66 67 66 67 66 67 67 67 67 66 67 67 66 66 66 67 66 64 61 61 59 57 58 58 57 57 55 56 59 57 58 57 55 52 54 55 57 57 56 58
65 66 66 66 65 63 63 61 61 62 64 64 63 62 62 64 65 66 64 65 65 66 65 65 65 66 66 66 66 66 67 66 67 67 66 65 65 66 66 65 61 60 60 60 57 55 57 58 59 58 60 62 57 55 58 55 55 55 53 57 58 57
67 66 65 65 65 65 64 64 62 62 64 64 61 61 61 62 61 60 61 63 64 65 64 65 64 65 64 66 66 67 67 67 66 66 66 66 65 65 66 66 63 61 59 58 56 57 58 59 60 60 60 63 61 61 58 56 55 52 52 54 54 57
66 65 65 64 64 64 64 63 62 63 63 62 59 59 59 62 61 61 60 60 62 63 63 63 64 63 63 64 63 65 66 67 67 67 66 66 66 65 66 65 65 62 61 58 56 57 60 63 62 62 60 60 61 62 61 58 56 55 52 55 55 54
66 65 65 65 65 64 62 62 60 60 61 58 60 59 58 58 59 58 57 58 61 62 63 63 63 63 63 63 62 63 66 67 66 66 66 66 65 65 66 65 65 64 62 60 58 58 60 61 60 58 60 60 63 62 63 62 60 58 56 54 56 55
66 66 66 65 64 63 63 61 60 60 59 58 59 58 58 56 56 58 58 59 59 60 60 60 61 61 61 60 61 61 63 64 65 65 65 65 65 65 65 66 65 65 66 64 61 60 61 62 60 58 57 58 60 63 63 63 63 61 58 56 53 54
65 64 63 61 58 56 56 55 55 55 55 56 57 56 58 55 58 57 58 57 57 59 57 59 59 59 60 59 59 59 62 62 62 64 65 64 63 64 65 65 65 64 64 64 65 63 62 63 63 64 65 65 63 62 63 60 63 62 58 57 56 54
63 63 59 56 55 53 54 52 53 54 55 54 55 57 58 57 57 57 56 55 57 55 57 56 56 58 60 58 59 59 61 61 61 62 62 64 65 65 66 65 64 65 64 63 64 65 65 65 64 64 64 65 65 63 63 63 60 60 59 58 55 53
61 60 57 56 54 54 53 51 51 52 51 50 51 53 54 57 58 58 58 57 57 55 56 56 56 58 59 58 59 58 61 60 60 61 62 62 64 64 64 64 64 64 64 63 61 66 65 64 62 61 60 59 62 65 65 65 61 61 58 57 57 57
59 58 57 57 54 54 55 55 53 53 51 52 55 56 55 56 57 55 57 56 57 57 56 54 55 56 59 59 59 58 58 59 59 60 61 62 62 63 64 63 63 62 62 62 63 65 65 65 62 63 63 61 60 59 64 62 63 61 59 58 58 57
59 58 57 57 54 57 57 59 59 57 56 53 54 57 58 58 56 54 54 55 55 56 56 55 52 50 54 56 58 57 57 57 58 59 58 59 59 60 63 63 64 62 62 61 61 62 63 64 61 62 58 57 59 58 56 59 60 62 63 60 59 58
58 58 57 57 58 58 57 57 57 58 57 56 55 54 54 52 54 53 54 55 55 55 55 55 54 53 52 55 56 56 55 56 56 57 56 56 56 57 56 57 61 62 61 62 60 62 62 64 63 64 61 59 58 57 57 60 61 62 61 60 58 57
56 57 55 58 57 55 54 53 53 51 50 50 50 51 50 52 51 52 50 54 54 54 54 56 55 54 53 53 55 54 56 54 54 54 55 54 56 56 56 56 56 57 58 60 61 60 60 62 63 63 64 63 60 59 60 61 59 57 63 61 60 60
56 56 56 57 57 53 53 53 54 51 50 49 47 50 52 53 54 51 52 54 53 56 54 55 55 55 55 55 56 56 56 54 53 53 53 53 53 54 53 55 56 56 54 56 57 56 58 58 60 61 61 62 61 63 63 61 58 59 58 62 62 62
55 54 57 58 55 54 52 52 53 51 50 47 47 51 54 54 54 52 51 53 54 54 54 53 54 52 52 53 54 53 53 52 48 47 45 45 46 47 49 52 54 55 56 56 57 54 55 55 56 56 57 58 59 60 61 61 61 59 58 58 59 62
55 55 58 58 56 54 52 53 53 51 48 47 50 49 50 52 51 53 53 52 53 52 53 53 51 51 49 48 49 49 49 48 47 45 42 43 46 47 51 52 52 51 53 53 55 55 54 53 54 52 55 56 56 55 56 59 59 59 58 57 58 59
55 55 56 58 56 55 54 54 52 50 49 49 49 48 48 50 52 53 53 53 53 52 52 53 53 50 48 46 48 49 48 48 49 46 45 46 50 52 52 53 53 53 53 52 51 52 53 52 53 54 53 53 52 51 52 52 54 53 54 56 55 57
55 54 56 57 56 56 55 56 54 53 51 51 50 50 49 52 51 52 51 52 50 51 51 51 51 52 51 50 51 50 51 50 50 50 49 49 51 50 52 52 53 53 54 52 51 52 51 51 50 50 50 49 49 49 52 51 50 50 50 50 49 49
55 55 56 57 56 56 55 56 55 55 52 52 51 50 50 50 52 52 52 50 49 50 51 51 52 51 53 53 53 52 52 51 49 50 50 50 50 50 51 52 52 52 52 53 53 52 52 51 51 49 50 49 49 50 51 50 50 50 50 50 50 49
55 55 56 57 57 57 56 55 55 56 54 53 52 50 49 50 52 49 51 50 49 47 48 49 50 51 53 54 53 53 52 50 50 50 50 48 49 49 49 49 50 52 52 52 52 53 51 53 53 51 49 49 47 47 49 50 50 50 50 51 50 47
55 56 56 57 57 57 57 56 56 56 55 54 53 51 50 49 50 48 48 50 49 47 47 50 50 51 53 54 52 53 53 52 50 50 50 50 51 49 49 45 48 50 51 51 52 52 52 52 52 52 51 49 49 47 48 49 49 49 50 49 48 48
54 56 56 56 56 56 56 56 57 56 55 55 54 50 49 49 52 49 49 50 48 48 47 49 48 52 53 54 54 55 54 52 51 51 50 51 50 50 49 46 48 51 50 50 50 49 49 50 49 49 50 49 49 48 47 45 46 48 47 49 48 49
55 56 56 56 56 56 56 57 58 58 57 56 53 52 50 49 51 51 51 49 49 50 49 48 50 52 54 54 55 55 54 53 51 51 51 50 49 48 48 47 47 50 50 49 51 51 50 50 50 50 49 48 48 46 48 47 47 47 46 49 48 48
55 56 56 56 56 56 57 57 58 59 58 58 57 55 53 54 55 54 53 51 49 50 51 50 51 54 54 54 55 55 53 53 52 50 50 49 49 49 48 47 47 48 49 49 49 49 49 49 49 48 47 48 46 47 46 49 48 48 49 49 48 47

ECMWFFLT2_sfc_dewp_033.txt.gz
Dewpoint
69 70 70 70 70 71 72 71 71 72 72 72 71 71 72 70 70 69 69 68 69 69 69 69 70 68 69 69 70 69 71 70 69 69 69 69 69 69 69 69 69 68 67 67 66 66 66 66 66 64 67 66 66 65 65 61 61 58 59 55 59 61
69 69 69 71 70 69 71 71 71 70 70 71 71 71 71 69 70 70 69 69 69 70 68 68 70 68 69 69 68 69 69 69 69 69 69 69 69 69 69 69 69 68 68 67 68 61 64 66 66 65 64 66 63 61 64 64 62 58 58 60 62 65
68 68 70 69 70 70 71 70 70 69 70 69 69 69 69 69 65 69 68 68 69 70 69 70 69 69 67 68 67 70 69 69 69 69 69 69 69 69 69 69 69 69 68 68 62 58 59 59 59 66 65 61 57 62 63 64 63 62 58 58 61 67
68 69 69 69 68 68 71 70 70 70 70 70 69 68 69 69 67 68 68 68 69 69 69 70 68 69 69 68 69 69 68 69 69 69 69 69 69 69 69 69 69 69 68 65 60 58 58 56 57 58 56 56 58 61 62 63 62 61 61 58 60 68
68 69 68 68 68 68 69 69 68 69 70 69 68 69 69 68 68 67 67 70 69 68 68 69 68 68 68 67 67 68 68 68 67 68 69 65 67 65 68 64 67 67 63 62 59 59 60 58 57 58 57 57 58 61 61 63 62 61 60 63 63 67
68 68 69 69 68 67 69 68 69 69 69 69 69 68 67 68 69 68 68 67 68 68 67 68 68 68 68 67 66 68 67 68 67 65 66 66 64 66 64 60 62 62 60 60 59 59 60 60 57 56 56 57 58 59 60 59 61 62 62 64 65 68
67 69 68 68 68 68 69 69 70 68 68 68 68 68 69 70 66 67 67 68 68 67 68 67 67 67 67 66 66 65 66 65 66 65 67 63 65 66 63 62 60 62 61 59 57 58 58 60 60 54 55 54 56 56 58 58 60 62 62 62 66 68
66 69 68 67 68 67 67 68 68 68 69 69 68 67 66 68 68 69 68 69 68 67 66 66 66 66 66 67 67 64 65 65 68 65 66 66 64 65 65 64 61 58 59 59 56 57 57 56 59 59 54 55 55 56 58 57 61 63 63 63 65 68
65 67 66 68 67 66 69 68 67 68 66 67 67 67 68 68 66 68 69 68 68 68 67 66 66 66 68 66 67 68 67 66 66 69 68 66 65 69 66 66 63 61 60 59 58 58 55 55 59 59 54 54 55 54 55 58 61 61 62 62 65 66
67 67 67 67 65 68 69 68 66 67 66 68 67 67 67 67 68 69 68 67 67 67 68 67 68 66 66 67 68 67 66 67 66 68 67 66 67 68 68 68 67 61 57 59 57 57 55 55 53 56 54 52 54 53 55 56 58 59 61 62 63 66
65 68 67 64 64 66 68 67 67 66 68 67 68 67 67 67 68 67 68 68 68 67 67 67 67 67 68 67 66 66 65 65 67 66 66 65 69 69 68 67 65 61 59 59 57 57 55 56 53 50 51 50 51 54 53 57 55 57 57 61 62 65
64 66 64 58 61 60 61 61 64 63 65 66 68 66 69 66 67 67 67 68 67 67 65 66 67 66 66 65 65 65 65 65 67 65 66 66 66 69 68 65 63 62 63 65 59 57 58 54 53 50 51 48 48 52 51 54 53 54 55 59 60 63
64 65 61 60 59 59 59 56 58 58 60 63 64 65 64 64 67 68 68 67 67 67 67 65 67 67 66 64 67 66 65 65 65 68 67 67 67 67 67 66 64 63 63 63 61 59 55 56 54 53 53 51 51 49 51 51 53 55 55 56 58 59
63 61 62 61 61 57 58 58 57 56 59 60 58 58 62 66 65 66 68 68 68 67 66 66 65 67 66 65 65 66 65 65 65 67 67 68 67 68 67 65 63 61 60 60 58 59 58 57 53 51 53 53 55 55 52 50 52 53 55 56 57 58
63 62 61 61 58 59 59 58 55 58 61 63 60 59 61 66 65 66 66 66 66 66 66 65 65 69 65 64 64 65 66 66 67 66 67 67 67 67 67 65 64 61 60 60 56 56 57 57 55 53 53 57 54 53 55 53 53 53 52 57 58 57
64 64 63 63 62 62 61 60 60 60 61 61 58 58 59 60 60 60 61 63 64 65 64 65 64 65 66 67 65 64 64 67 65 66 67 67 66 65 65 65 65 63 60 58 57 56 56 57 58 57 57 60 59 58 57 55 55 49 51 54 54 56
64 64 63 63 60 61 62 60 60 60 59 59 56 57 55 57 57 58 58 59 62 63 62 64 64 64 65 65 63 66 66 66 67 66 66 66 66 64 66 64 64 64 63 59 57 55 57 58 58 59 60 62 62 61 60 58 56 55 51 53 52 52
64 63 63 62 62 61 60 60 58 58 58 56 58 56 57 55 57 56 57 59 61 62 63 62 61 63 64 64 63 64 64 66 66 67 65 64 65 65 65 65 64 65 64 63 58 58 57 58 59 59 62 60 61 60 60 60 59 57 55 52 55 53
63 64 63 63 62 61 60 59 57 57 54 52 55 57 55 56 56 58 58 60 59 60 61 61 61 60 61 61 61 63 64 66 66 67 65 64 64 64 65 65 63 63 64 65 65 64 60 60 59 58 57 63 62 65 65 62 62 63 58 57 54 54
64 62 62 61 59 56 55 54 53 54 53 55 55 54 56 54 57 55 56 57 57 59 56 58 58 59 59 57 58 59 61 63 64 65 65 64 63 62 63 63 63 64 63 64 64 63 64 62 62 62 63 65 64 65 66 68 63 62 63 59 58 56
63 62 59 57 55 54 52 52 53 53 52 52 53 55 56 56 56 58 57 54 56 55 55 56 56 56 58 56 56 58 59 59 60 60 61 63 63 63 63 64 64 64 62 62 62 64 64 63 63 63 63 63 65 65 66 64 63 64 62 65 61 55
61 59 57 56 55 54 54 51 51 51 52 47 47 51 53 57 58 56 56 55 55 54 54 55 56 59 57 56 56 55 57 59 59 59 61 61 63 64 63 64 63 64 64 63 62 63 63 63 60 59 59 59 63 63 65 65 65 63 59 57 57 57
59 57 56 57 54 53 54 54 52 50 50 50 53 55 54 55 56 53 56 55 56 57 56 55 56 56 56 56 57 55 56 58 59 59 59 59 62 64 63 65 64 65 64 63 63 64 64 63 61 62 60 59 59 58 62 63 65 63 58 54 61 61
59 57 56 57 54 56 56 56 55 54 53 52 54 56 56 55 54 54 55 56 56 57 56 54 53 52 53 55 56 54 54 55 57 58 57 57 58 59 62 62 63 61 60 61 62 62 64 63 63 62 58 58 59 57 55 58 60 63 63 62 61 63
57 58 57 55 57 56 56 57 56 56 57 55 53 51 52 51 53 53 53 55 55 55 55 54 54 54 51 52 52 53 52 54 54 55 54 54 55 57 56 57 60 62 62 62 59 62 62 63 64 63 61 60 58 54 55 59 61 62 64 63 61 62
57 57 57 57 58 55 53 53 52 50 48 48 49 51 50 51 49 52 51 53 54 55 55 55 54 54 53 53 53 52 53 52 52 52 53 51 52 53 54 55 54 56 59 60 62 60 60 62 63 63 62 63 60 58 59 60 60 57 62 62 63 64
57 56 57 57 57 53 53 52 52 48 47 48 47 50 52 53 52 49 52 55 53 55 54 56 55 54 55 54 55 55 55 53 51 51 50 52 51 51 50 51 53 54 53 55 57 57 58 60 62 61 62 61 61 62 62 61 58 58 57 62 63 64
57 56 57 57 55 54 53 52 52 50 48 48 49 52 53 53 53 52 52 54 54 54 54 53 53 51 52 53 54 52 51 50 46 44 42 43 44 46 50 49 51 52 54 53 55 54 53 56 55 56 59 60 61 61 61 60 60 57 58 56 58 63
56 56 58 58 54 54 53 53 53 51 48 50 52 51 51 51 50 52 53 52 53 51 52 53 50 50 50 48 49 49 49 48 48 46 41 43 47 48 51 53 53 52 52 51 53 54 54 52 53 52 53 53 54 57 59 59 60 60 58 56 58 58
56 56 58 58 54 54 54 53 52 50 50 49 49 48 49 48 50 52 53 54 52 52 51 51 51 49 48 47 48 48 47 47 48 45 44 47 50 51 52 53 54 54 54 53 52 50 51 51 51 52 49 49 48 50 49 55 57 56 57 57 54 54
56 55 58 57 54 54 54 53 52 51 50 51 50 49 49 50 49 51 51 52 50 51 51 51 50 51 51 49 51 50 50 48 50 50 48 47 50 49 52 54 54 53 53 54 52 53 52 50 51 49 49 48 48 48 49 47 50 51 50 50 49 49
56 55 58 57 55 53 53 54 53 52 51 52 51 50 51 49 50 51 51 50 50 49 51 51 52 50 52 52 52 51 50 50 49 51 49 50 50 49 51 51 51 52 54 54 54 53 53 53 54 51 50 49 48 48 49 49 49 49 48 48 50 48
55 55 57 58 55 55 54 54 53 52 52 52 52 50 51 50 51 50 49 49 49 48 50 50 51 51 53 53 52 51 51 49 48 50 50 47 47 49 49 48 51 51 52 51 51 53 51 53 52 51 51 49 48 46 47 48 49 47 47 48 47 44
55 56 57 57 55 55 54 55 55 54 52 52 51 51 50 50 51 48 50 49 49 47 49 51 51 52 53 52 52 52 52 51 50 50 49 51 51 48 49 44 48 50 51 51 52 52 51 52 52 51 51 49 47 47 48 50 49 50 49 48 46 48
55 55 56 57 56 55 54 54 54 54 52 52 51 49 48 49 51 49 50 51 50 48 48 49 49 51 53 53 53 53 53 51 49 51 50 51 50 49 49 46 48 51 51 50 50 49 49 50 50 49 49 48 49 48 48 45 46 48 46 49 48 48
55 56 56 57 56 55 54 54 54 55 54 53 51 50 48 48 50 50 50 50 50 49 49 49 51 51 54 53 54 53 53 51 50 50 51 50 50 48 49 48 48 50 49 48 51 52 51 51 51 50 49 50 48 46 47 45 47 47 46 48 48 47
55 56 56 57 57 56 55 55 54 54 55 54 54 52 49 50 52 52 52 51 50 49 51 51 51 52 54 53 54 54 52 52 51 51 50 49 49 49 48 48 49 47 49 50 50 48 50 49 49 50 48 48 46 45 44 48 47 46 47 49 48 46